EW1898 Weather Reports


time (UTC)temp
F
wind
direction
speed
knots
gust
knots
rain 1hr
in
rain 24hr
in
rain mn
in
humidity
%
barometer
mb
20200220000134 31 317 2.6 7.0 0.00 0.02 0.02 42 1023.6
20200219234625 31 289 2.6 7.0 0.00 0.02 0.02 42 1023.5
20200219233106 31 314 1.7 4.3 0.00 0.02 0.02 43 1023.3
20200219231612 32 319 1.7 3.5 0.00 0.02 0.02 40 1023.1
20200219230042 32 317 1.7 4.3 0.00 0.02 0.02 39 1022.8
20200219224649 33 305 1.7 4.3 0.00 0.02 0.02 37 1022.5
20200219223113 33 298 2.6 10.4 0.00 0.02 0.02 36 1022.2
20200219221637 34 289 4.3 13.0 0.00 0.02 0.02 34 1022.0
20200219220057 34 331 4.3 13.0 0.00 0.02 0.02 36 1021.8
20200219214548 35 328 4.3 10.4 0.00 0.02 0.02 35 1021.5
20200219213038 35 297 3.5 13.0 0.00 0.02 0.02 36 1021.3
20200219211550 35 341 5.2 16.5 0.00 0.02 0.02 34 1021.1
20200219210027 36 328 6.1 16.5 0.00 0.02 0.02 34 1021.0
20200219204520 36 346 6.1 15.6 0.00 0.02 0.02 36 1020.7
20200219203040 36 326 5.2 13.0 0.00 0.02 0.02 38 1020.5
20200219201518 36 348 3.5 13.0 0.00 0.02 0.02 37 1020.4
20200219200014 36 302 9.6 15.6 0.00 0.02 0.02 36 1020.0
20200219194534 36 297 5.2 18.2 0.00 0.02 0.02 37 1019.8
20200219193232 36 318 8.7 21.7 0.00 0.02 0.02 36 1019.4
20200219191611 37 354 5.2 16.5 0.00 0.02 0.02 40 1019.3
20200219190220 37 329 5.2 14.8 0.01 0.02 0.02 42 1019.3
20200219184649 37 338 7.8 16.5 0.01 0.02 0.02 43 1019.0
20200219183155 37 322 6.1 18.2 0.01 0.02 0.02 42 1018.9
20200219181618 37 336 7.8 18.2 0.01 0.02 0.02 41 1018.8
20200219180138 37 293 4.3 13.0 0.00 0.01 0.01 46 1018.8
20200219174634 36 322 6.1 17.4 0.00 0.01 0.01 48 1018.8
20200219173146 37 324 6.1 17.4 0.00 0.01 0.01 50 1018.7
20200219171716 38 340 6.1 16.5 0.01 0.01 0.01 51 1018.7
20200219170105 38 310 3.5 16.5 0.01 0.01 0.01 51 1018.5
20200219164619 38 317 5.2 17.4 0.01 0.01 0.01 54 1018.5
20200219163136 39 329 6.1 13.9 0.01 0.01 0.01 55 1018.5
20200219161546 38 317 6.1 13.9 0.00 0.00 0.00 58 1018.5
20200219160130 37 317 3.5 11.3 0.00 0.00 0.00 63 1018.5
20200219154605 38 347 2.6 9.6 0.00 0.00 0.00 64 1018.4
20200219153112 37 344 4.3 11.3 0.00 0.00 0.00 66 1018.4
20200219151550 37 324 5.2 12.2 0.00 0.00 0.00 68 1018.4
20200219150128 37 292 4.3 13.0 0.00 0.00 0.00 72 1018.4
20200219144615 37 296 0.9 8.7 0.00 0.00 0.00 76 1018.2
20200219143051 36 307 0.9 4.3 0.00 0.00 0.00 77 1018.2
20200219141545 36 314 0.9 2.6 0.00 0.00 0.00 79 1018.1
20200219140056 37 287 0.9 3.5 0.00 0.00 0.00 78 1017.9
20200219134521 37 291 0.9 6.1 0.00 0.00 0.00 78 1017.7
20200219133038 36 302 0.9 5.2 0.00 0.00 0.00 79 1017.6
20200219131516 36 337 1.7 5.2 0.00 0.00 0.00 79 1017.5
20200219130046 35 323 1.7 6.1 0.00 0.00 0.00 82 1017.3
20200219124507 35 326 3.5 5.2 0.00 0.00 0.00 84 1017.0
20200219123002 34 295 1.7 4.3 0.00 0.00 0.00 90 1016.9
20200219121714 34 317 2.6 5.2 0.00 0.00 0.00 94 1016.8
20200219114653 34 312 1.7 7.0 0.00 0.00 0.00 99 1016.1
20200219113126 34 318 1.7 3.5 0.00 0.00 0.00 99 1015.8
20200219111715 34 296 0.0 3.5 0.00 0.00 0.00 99 1015.6
20200219110143 34 299 0.0 2.6 0.00 0.00 0.00 99 1015.5
20200219104717 34 330 1.7 3.5 0.00 0.00 0.00 99 1015.2
20200219103123 34 305 1.7 5.2 0.00 0.00 0.00 99 1015.1
20200219101559 34 295 0.9 2.6 0.00 0.00 0.00 99 1015.0
20200219100102 34 318 0.9 3.5 0.00 0.00 0.00 99 1014.9
20200219094602 35 322 0.9 3.5 0.00 0.00 0.00 99 1014.5
20200219093135 35 324 1.7 4.3 0.00 0.00 0.00 99 1014.2
20200219091601 35 319 0.9 3.5 0.00 0.00 0.00 99 1014.1
20200219090131 35 305 0.9 4.3 0.00 0.00 0.00 99 1014.1
20200219084543 35 294 0.0 3.5 0.00 0.00 0.00 99 1013.8
20200219083059 35 305 0.9 3.5 0.00 0.00 0.00 99 1013.7
20200219081545 34 323 1.7 3.5 0.00 0.00 0.00 99 1013.7
20200219080049 34 295 0.0 0.9 0.00 0.00 0.00 99 1013.5
20200219074534 34 299 0.0 0.9 0.00 0.00 0.00 99 1013.3
20200219073051 34 299 0.0 1.7 0.00 0.00 0.00 99 1012.8
20200219071541 33 291 0.0 0.9 0.00 0.00 0.00 99 1012.8
20200219070031 33 291 0.0 0.9 0.00 0.00 0.00 99 1013.3
20200219064525 33 291 0.0 1.7 0.00 0.00 0.00 99 1013.3
20200219063035 32 291 0.0 1.7 0.00 0.00 0.00 99 1012.9
20200219061540 32 291 0.0 0.9 0.00 0.00 0.00 99 1012.8
20200219060020 32 291 0.0 0.0 0.00 0.00 0.00 99 1012.6
20200219054523 32 291 0.0 0.9 0.00 0.00 0.00 99 1013.1
20200219053030 32 291 0.0 0.0 0.00 0.00 0.00 99 1012.9
20200219051539 32 291 0.0 0.9 0.00 0.00 0.00 99 1012.8
20200219050015 32 291 0.0 0.9 0.00 0.00 0.00 99 1012.8
20200219044531 32 291 0.0 0.9 0.00 0.00 0.00 99 1013.2
20200219043024 32 291 0.0 0.9 0.00 0.00 0.00 99 1013.4
20200219041512 32 291 0.0 1.7 0.00 0.00 0.00 99 1013.2
20200219040032 32 329 0.9 4.3 0.00 0.00 0.00 99 1013.4
20200219034533 32 314 0.0 1.7 0.00 0.00 0.00 99 1013.4
20200219033011 32 314 0.0 0.9 0.00 0.00 0.00 99 1013.4
20200219031526 32 315 0.0 0.9 0.00 0.00 0.00 99 1013.5
20200219030006 32 322 0.9 3.5 0.00 0.00 0.00 99 1013.9
20200219024506 32 306 0.0 1.7 0.00 0.00 0.00 99 1014.0
20200219023002 32 306 0.0 1.7 0.00 0.00 0.00 99 1014.4
20200219021705 32 306 0.0 1.7 0.00 0.00 0.00 99 1014.6
20200219020115 33 305 0.0 1.7 0.00 0.00 0.00 99 1015.0
20200219014632 33 305 0.9 1.7 0.00 0.00 0.00 99 1015.2
20200219013159 33 314 0.0 2.6 0.00 0.00 0.00 99 1015.5
20200219011639 33 271 0.0 0.9 0.00 0.00 0.00 99 1015.5
20200219010134 33 271 0.0 0.9 0.00 0.00 0.00 99 1015.7
20200219004653 33 274 0.0 2.6 0.00 0.00 0.00 98 1016.2
20200219003210 33 274 0.0 0.9 0.00 0.00 0.00 98 1017.1
20200219001631 33 266 0.0 0.9 0.00 0.00 0.00 98 1017.1